www.pogodaiklimat.ru

Погода и климат >> Архив погоды >> Афганистан >> Мазари-Шариф


ПОГОДА в Мазари-Шарифе

  • Прогноз погоды в Мазари-Шарифе
  • Монитор погоды в Мазари-Шарифе

АРХИВ ПОГОДЫ в Мазари-Шарифе

Время (UTC), дата Ветер
(напр.,м/с)
 
Видим.   Явления Облачность Т
(С)
Тd
(С)
f
(%)
Тe
(С)
Тes
(С)
Комфортность P
(гПа)
Po
(гПа)
Тmin
(С)
Tmax
(С)
R
(мм)
R24
(мм)
S
(см)
18 12.06 В 4 27 км н/о +25.4 -4.1 14 +23 +23 комфорт 1008.1 965.9 +31.5
21 12.06 ЮЗ 1 27 км н/о +19.7 -2.7 22 +21 +21 комфорт 1007.6 964.6
00 13.06 Ю 1 26 км {дождь} н/о +16.0 -2.6 28 +17 +17 1008.1 964.5
03 13.06 СЗ 2 5000 м мгла н/о +22.7 +1.0 24 +22 +22 комфорт 1007.6 965.0
06 13.06 СВ 7 19 км н/о +30.4 -2.3 12 +27 +27 жарко 1005.3 963.9 +14.7
09 13.06 СВ 7 18 км ясно +31.4 -2.9 11 +28 +33 жарко 1007.9 963.6
12 13.06 СВ 5 18 км ясно +33.5 -3.5 9 +30 +33 жарко 1008.9 964.8
15 13.06 В 2 23 км н/о +30.1 -6.5 9 +26 +26 жарко 1002.2 960.9
18 13.06 ЮЗ 2 16 км н/о +24.2 -5.1 14 +22 +22 комфорт 1003.7 961.5 +34.7
21 13.06 ЮЗ 3 26 км н/о +22.9 -4.3 16 +21 +21 комфорт 1003.3 960.9
00 14.06 Ю 3 24 км н/о +23.7 -3.6 16 +22 +22 комфорт 1003.2 960.9
03 14.06 З 3 17 км н/о +30.3 -0.2 14 +27 +27 жарко 1003.4 962.1
06 14.06 штиль 0 н/о н/о +22.1
09 14.06 З 6 27 км н/о +34.4 -4.8 8 +30 +30 жарко 1002.9 962.1
12 14.06 СЗ 4 35 км н/о +35.1 -6.0 7 +31 +31 жарко 1002.0 961.4
15 14.06 ЮЗ 3 22 км {дождь} н/о +30.1 -6.5 9 +26 +26 жарко 1003.1 961.7
18 14.06 Ю 4 24 км н/о +28.1 -6.6 10 +25 +25 комфорт 1003.6 961.9 +35.8
21 14.06 ЮЗ 3 35 км н/о +23.9 -5.3 14 +22 +22 комфорт 1004.1 961.8
00 15.06 ЮЗ 4 35 км н/о +26.2 -5.6 12 +23 +23 комфорт 1003.8 961.9
03 15.06 З 6 27 км н/о +31.7 -5.3 9 +28 +28 жарко 1004.5 963.3
06 15.06 З 4 22 км н/о +33.5 -2.5 10 +30 +30 жарко 1005.5 964.5 +23.4
09 15.06 СЗ 6 14 км н/о +35.8 -3.8 8 +32 +32 жарко 1004.9 964.2
12 15.06 З 4 23 км н/о +35.8 -3.8 8 +32 +32 жарко 1003.9 963.3
15 15.06 З 1 19 км н/о +31.7 -3.8 10 +28 +28 жарко 1005.1 963.9
18 15.06 Ю 1 8000 м мгла н/о +26.7 -2.1 15 +24 +24 комфорт 1006.9 964.9 +36.3
21 15.06 Ю 2 25 км н/о +23.7 -2.8 17 +22 +22 комфорт 1006.4 964.0
00 16.06 ЮВ 3 35 км н/о +21.1 -2.8 20 +20 +20 1007.3 964.5
03 16.06 З 5 18 км н/о +28.3 -1.8 14 +26 +26 жарко 1007.8 966.0
06 16.06 З 4 23 км н/о +32.7 -0.5 12 +29 +29 жарко 1007.2 966.0 +20.3
09 16.06 З 5 20 км ясно +35.2 -2.8 9 +31 +41 жарко 1009.4 965.2
12 16.06 З 2 29 км н/о +35.5 -5.8 7 +31 +31 жарко 1004.0 963.3
15 16.06 З 3 16 км н/о +32.1 -1.0 12 +29 +29 жарко 1004.1 963.0
18 16.06 Ю 3 21 км н/о +27.8 -1.2 15 +25 +25 комфорт 1005.3 963.5 +36.7
21 16.06 ЮЗ 4 28 км н/о +26.0 -3.6 14 +24 +24 комфорт 1004.8 962.8
00 17.06 З 3 17 км {морось} н/о +24.4 -2.3 17 +23 +23 комфорт 1004.2 962.0
03 17.06 З 4 12 км н/о +28.6 -0.6 15 +26 +26 жарко 1004.8 963.2
06 17.06 З 5 21 км н/о +32.7 -1.8 11 +29 +29 жарко 1004.4 963.3 +21.6
09 17.06 З 4 20 км ясно +35.2 -8.8 6 +31 +43 жарко 1006.9 962.7
12 17.06 З 3 28 км н/о +35.3 -7.8 6 +31 +31 жарко 1001.7 961.1
15 17.06 З 3 13 км н/о +31.9 -5.1 9 +28 +28 жарко 1001.9 960.8
18 17.06 Ю 4 35 км н/о +27.9 -8.1 9 +24 +24 комфорт 1003.2 961.5 +36.1
21 17.06 ЮЗ 4 27 км н/о +26.1 -9.5 9 +23 +23 комфорт 1002.7 960.8
00 18.06 Ю 5 35 км н/о +25.7 -9.8 9 +23 +23 комфорт 1002.6 960.6
03 18.06 З 4 11 км н/о +29.9 -6.6 9 +26 +26 жарко 1003.0 961.6
06 18.06 З 5 35 км {дождь} н/о +33.8 -7.0 7 +30 +30 жарко 1003.0 962.1 +25.2
09 18.06 СЗ 4 20 км ясно +34.7 -3.0 9 +31 +43 жарко 1005.2 961.1
12 18.06 З 6 29 км н/о +34.7 -4.6 8 +31 +31 жарко 1000.5 959.9
15 18.06 ЮЗ 3 20 км н/о +30.4 -4.8 10 +27 +27 жарко 1001.2 960.0
18 18.06 ЮЗ 4 35 км н/о +27.3 -7.2 10 +24 +24 комфорт 1002.1 960.4 +36.1
00 19.06 ЮЗ 6 27 км н/о +27.6 -4.5 12 +25 +25 комфорт 1001.4 959.8
03 19.06 З 5 22 км н/о +31.6 -3.9 10 +28 +28 жарко 1001.9 960.8
06 19.06 З 6 27 км {морось} н/о +34.2 -1.9 10 +30 +30 жарко 1001.1 960.4 +25.2
09 19.06 З 5 20 км ясно +35.7 -2.4 9 +32 +42 жарко 1003.8 959.7
12 19.06 З 3 27 км н/о +36.1 -2.0 9 +32 +32 жарко 999.0 958.6
15 19.06 ЮЗ 4 19 км н/о +31.9 -2.4 11 +28 +28 жарко 1000.0 959.0

 

Местоположение метеостанции Мазари-Шариф (Афганистан): широта 36.71 долгота 67.21 высота над уровнем моря 378 м.

В архиве по умолчанию представлена погода в Мазари-Шарифе за последнюю неделю. Архивные данные за месяц целиком и за предыдущие месяцы, начиная с января 2011 года, Вы можете получить, выбрав интересующий диапазон дат из раскрывающегося списка и нажав кнопку "Ввод!".


*Определитесь, кто Вы:
робот инопланетянин человек

Внимание! Время в таблицах - всемирное. Для получения местного времени необходимо прибавить поправку, которая равна 4.5 ч.

Смотрите также архив погоды в соседних городах и на ближайших метеорологических станциях:

Погода в Термезе (Сухрандарьинская область, Узбекистан) (58 км)
Погода в Ширабаде (Сухрандарьинская область, Узбекистан) (108 км)
Погода в Койтендаге (Дашогузский велаят, Туркменистан) (139 км)
Погода в Кундузе (Афганистан) (152 км)
Погода в Шурчи (Сухрандарьинская область, Узбекистан) (153 км)
Погода в Байсуне (Сухрандарьинская область, Узбекистан) (166 км)
Погода в Акрабате (Узбекистан) (175 км)
Погода в Пьяндже (Таджикистан) (176 км)
Погода в Ганжине (Таджикистан) (183 км)
Погода в Денау (Сухрандарьинская область, Узбекистан) (184 км)

Пояснения к столбцам:

Ветер - указаны скорость ветра в м/с - средняя за 10 мин, порывы в срок и между сроками (в фигурных скобках) и направление, откуда дует ветер: С - северный, СВ - северо-восточный, В - восточный, ЮВ - юго-восточный, Ю - южный, ЮЗ - юго-западный, З - западный, СЗ - северо-западный.
Видимость - горизонтальная дальность видимости в метрах или километрах. При видимости от 1 до 10 км при отсутствии осадков обычно наблюдается дымка, при ухудшении видимости до 1 км и менее - туман. В сухую погоду видимость может ухудшаться дымом, пылью или мглою.
Явления - указаны атмосферные явления, наблюдавшиеся в срок или в последний час перед сроком; фигурными скобками обозначены явления, наблюдавшиеся между сроками (за 1-3 часа до срока); квадратными скобками обозначены град или гололедные отложения с указанием их диаметра в мм.
Облачность - указаны через наклонную черту общая и нижняя облачность в баллах и высота нижней границы облаков в метрах; квадратными скобками обозначены формы облаков: Ci - перистые, Cs - перисто-слоистые, Cc - перисто-кучевые, Ac - высококучевые, As - высокослоистые, Sc - слоисто-кучевые, Ns - слоисто-дождевые, Cu - кучевые, Cb - кучево-дождевые. Подробнее классификацию облаков см. в Атласе облаков (PDF).
T - Температура воздуха - температура, измеренная на высоте 2 м над землей.
Td - Температура точки росы - температура, при понижении до которой содержащийся в воздухе водяной пар достигнет насыщения.
f - Относительная влажность воздуха - влажноcть воздуха, измеренная на высоте 2 м над землей.
Te - Эффективная температура - температура, которую ощущает одетый по сезону человек в тени. Характеристика душности погоды. При расчете учитывается влияние влажности воздуха и скорости ветра на теплоощущения человека.
Tes - Эффективная температура на солнце - температура, которую ощущает человек, с поправкой на солнечный нагрев. Характеристика знойности погоды. Зависит от высоты солнца над горизонтом, облачности и скорости ветра. Ночью, в пасмурную погоду, а также при ветре 12 м/с и более поправка равна нулю.
P - Атмосферное давление - приведенное к уровню моря атмосферное давление.
Po - Атмосферное давление - измеренное на уровне метеостанции атмосферное давление.
Tmin - Минимальная температура - минимум температуры воздуха на высоте 2 м над землей.
Tmax - Максимальная температура - максимум температуры воздуха на высоте 2 м над землей.
R - Количество осадков - Количество выпавших осадков за период времени, мм. При наведении курсора мыши на число - период времени, за который выпало указанное количество осадков.
R24 - Количество осадков - Количество выпавших осадков за 24 часа, мм.
S - Снежный покров - Высота снежного покрова, см. При наведении курсора мыши на число - состояние снежного покрова и степень покрытия местности в баллах.